Flood From: 17-02-2018 16:00 Until: 18-02-2018 16:00 warning for: Flood Level: Yellow info button

Although rather usual in this region, locally or potentially dangerous phenomena are expected. (such as local winds, summer thunderstorms, rising streams or high waves) Be aware and pay attention to the latest weather updates, especially if you carry out activities exposed to weather or close to a stream or shoreline. 


Meteo18 Weather Cam more information Meteo18 Weather Cam


Thunder radar more information blitzortung!


Rain radar more information rain snow radar


Visit our other weather sites:

Template documentation
and downloads

And another site



Weather Underground History page Text

Daily Summary for January 1, 2018 Units:  English    Metric   Both
« Previous Day
Next Day »
Daily Weekly Monthly Yearly Custom
  High: Low: Average:
Temperature: TemperatureC °F 5.1 °F 6.9 °F
Dew Point: DewpointC °F 4.0 °F 5 °F
Humidity: Humidity % 80 % 88 %
Wind Speed: WindSpeedKMH mph 0.0 mph 18 mph
Wind Gust: WindSpeedGustKMH mph - -
Wind:- - WSW
Pressure: PressurehPa in 1002.6 in -
Precipitation: 20.3 in    
Historical Graphs
 
 
Tabular Data for January 1, 2018
Time Temperature Dew Point Pressure Wind Wind Speed Wind Gust Humidity Rainfall Rate (Hourly)
TemperatureC °F DewpointC °F PressurehPa in Calm     Humidity % HourlyPrecipMM in
00:01 8.3 °F 6.1 °F 1012.4 in West 20.9 mph 38.6 mph 86 % 0.0 in
00:07 8.3 °F 6.1 °F 1012.4 in WSW 25.9 mph 27.4 mph 86 % 0.0 in
00:13 8.3 °F 6.1 °F 1012.1 in WSW 19.5 mph 25.7 mph 86 % 0.0 in
00:15 8.3 °F 6.1 °F 1012.4 in West 7.9 mph 29.0 mph 86 % 0.0 in
00:21 8.3 °F 6.3 °F 1012.4 in WSW 13.0 mph 29.0 mph 87 % 0.0 in
00:29 8.2 °F 6.2 °F 1012.8 in WSW 24.1 mph 29.0 mph 87 % 0.0 in
00:37 8.3 °F 6.3 °F 1012.8 in SW 22.7 mph 33.8 mph 87 % 0.0 in
00:43 8.2 °F 6.2 °F 1012.8 in South 16.3 mph 38.6 mph 87 % 0.0 in
00:49 8.2 °F 6.2 °F 1012.8 in SW 17.7 mph 25.7 mph 87 % 0.0 in
00:55 8.2 °F 6.2 °F 1012.8 in SW 14.3 mph 25.7 mph 87 % 0.0 in
01:01 8.2 °F 6.2 °F 1012.8 in WSW 17.7 mph 29.0 mph 87 % 0.0 in
01:07 8.1 °F 6.1 °F 1012.8 in West 14.3 mph 25.7 mph 87 % 0.0 in
01:10 8.1 °F 6.1 °F 1012.8 in WSW 16.3 mph 25.7 mph 87 % 0.0 in
01:17 8.2 °F 6.2 °F 1013.1 in SW 19.5 mph 29.0 mph 87 % 0.0 in
01:23 8.2 °F 6.0 °F 1012.8 in WSW 16.3 mph 35.4 mph 86 % 0.0 in
01:29 8.2 °F 5.8 °F 1012.8 in SW 17.7 mph 35.4 mph 85 % 0.0 in
01:35 8.1 °F 5.7 °F 1012.8 in SW 13.0 mph 22.5 mph 85 % 0.0 in
01:41 8.1 °F 5.7 °F 1012.8 in WSW 19.5 mph 29.0 mph 85 % 0.0 in
01:48 8.1 °F 5.7 °F 1013.1 in West 27.4 mph 35.4 mph 85 % 0.0 in
01:53 8.1 °F 5.4 °F 1013.1 in West 27.4 mph 38.6 mph 83 % 0.0 in
01:59 8.1 °F 5.4 °F 1013.1 in WSW 24.1 mph 30.6 mph 83 % 0.0 in
02:06 8.0 °F 5.5 °F 1013.1 in WNW 14.3 mph 30.6 mph 84 % 0.0 in
02:12 7.9 °F 5.4 °F 1013.4 in WSW 17.7 mph 27.4 mph 84 % 0.0 in
02:18 7.8 °F 5.3 °F 1013.4 in West 17.7 mph 25.7 mph 84 % 0.0 in
02:24 7.7 °F 5.2 °F 1013.4 in SW 20.9 mph 33.8 mph 84 % 0.0 in
02:30 7.6 °F 5.1 °F 1013.4 in WSW 20.9 mph 35.4 mph 84 % 0.0 in
02:36 7.5 °F 4.8 °F 1013.8 in West 13.0 mph 32.2 mph 83 % 0.0 in
02:42 7.4 °F 4.7 °F 1013.8 in SW 20.9 mph 37.0 mph 83 % 0.0 in
02:48 7.3 °F 4.6 °F 1014.1 in WSW 9.7 mph 29.0 mph 83 % 0.0 in
02:54 7.2 °F 4.5 °F 1014.1 in WSW 14.3 mph 32.2 mph 83 % 0.0 in
03:00 7.1 °F 4.6 °F 1014.1 in WSW 14.3 mph 22.5 mph 84 % 0.0 in
03:02 7.1 °F 4.6 °F 1014.1 in WSW 20.9 mph 29.0 mph 84 % 0.0 in
03:08 7.1 °F 4.6 °F 1014.1 in SW 9.7 mph 29.0 mph 84 % 0.0 in
03:14 7.1 °F 4.6 °F 1014.1 in WSW 16.3 mph 24.1 mph 84 % 0.0 in
03:20 7.1 °F 4.6 °F 1014.1 in WSW 22.7 mph 25.7 mph 84 % 0.0 in
03:26 6.9 °F 4.4 °F 1014.1 in WSW 9.7 mph 20.9 mph 84 % 0.0 in
03:32 6.9 °F 4.4 °F 1014.4 in WSW 25.9 mph 40.2 mph 84 % 0.0 in
03:38 6.9 °F 4.4 °F 1014.4 in West 7.9 mph 22.5 mph 84 % 0.0 in
03:44 6.8 °F 4.3 °F 1014.4 in SW 11.1 mph 16.1 mph 84 % 0.0 in
03:52 6.7 °F 4.4 °F 1014.4 in SW 24.1 mph 25.7 mph 85 % 0.0 in
03:58 6.7 °F 4.4 °F 1014.4 in WSW 11.1 mph 22.5 mph 85 % 0.0 in
04:04 6.7 °F 4.4 °F 1014.8 in WSW 14.3 mph 19.3 mph 85 % 0.0 in
04:10 6.7 °F 4.4 °F 1014.8 in West 7.9 mph 24.1 mph 85 % 0.0 in
04:16 6.7 °F 4.4 °F 1014.8 in West 11.1 mph 22.5 mph 85 % 0.0 in
04:22 6.6 °F 4.3 °F 1014.8 in WSW 19.5 mph 25.7 mph 85 % 0.0 in
04:28 6.6 °F 4.3 °F 1014.8 in WSW 11.1 mph 25.7 mph 85 % 0.0 in
04:34 6.6 °F 4.3 °F 1014.8 in West 20.9 mph 29.0 mph 85 % 0.0 in
04:41 6.6 °F 4.3 °F 1014.8 in WSW 24.1 mph 27.4 mph 85 % 0.0 in
04:46 6.6 °F 4.3 °F 1015.1 in WSW 17.7 mph 25.7 mph 85 % 0.0 in
04:52 6.6 °F 4.4 °F 1015.1 in SSW 11.1 mph 20.9 mph 86 % 0.0 in
04:58 6.5 °F 4.3 °F 1015.1 in WSW 13.0 mph 20.9 mph 86 % 0.0 in
05:04 6.5 °F 4.3 °F 1015.1 in WSW 7.9 mph 22.5 mph 86 % 0.0 in
05:10 6.5 °F 4.5 °F 1015.1 in SW 24.1 mph 25.7 mph 87 % 0.0 in
05:16 6.6 °F 4.6 °F 1015.1 in West 14.3 mph 32.2 mph 87 % 0.0 in
05:22 6.5 °F 4.5 °F 1015.1 in West 16.3 mph 30.6 mph 87 % 0.0 in
05:28 6.5 °F 4.5 °F 1015.1 in WSW 22.7 mph 24.1 mph 87 % 0.0 in
05:34 6.4 °F 4.2 °F 1015.1 in SW 17.7 mph 29.0 mph 86 % 0.0 in
05:40 6.5 °F 4.3 °F 1015.1 in SW 13.0 mph 19.3 mph 86 % 0.0 in
05:46 6.4 °F 4.2 °F 1015.5 in WSW 14.3 mph 22.5 mph 86 % 0.0 in
05:52 6.5 °F 4.3 °F 1015.1 in WSW 17.7 mph 22.5 mph 86 % 0.0 in
05:58 6.6 °F 4.4 °F 1015.1 in SSW 9.7 mph 22.5 mph 86 % 0.0 in
06:04 6.6 °F 4.4 °F 1015.1 in WSW 14.3 mph 27.4 mph 86 % 0.0 in
06:10 6.5 °F 4.3 °F 1015.1 in SW 13.0 mph 19.3 mph 86 % 0.0 in
06:16 6.5 °F 4.3 °F 1015.1 in SW 20.9 mph 25.7 mph 86 % 0.0 in
06:22 6.5 °F 4.3 °F 1015.1 in WSW 7.9 mph 27.4 mph 86 % 0.0 in
06:28 6.5 °F 4.3 °F 1015.1 in WSW 19.5 mph 29.0 mph 86 % 0.0 in
06:34 6.5 °F 4.3 °F 1015.1 in WSW 17.7 mph 27.4 mph 86 % 0.0 in
06:36 6.5 °F 4.3 °F 1015.1 in WSW 20.9 mph 30.6 mph 86 % 0.0 in
06:40 6.6 °F 4.4 °F 1015.1 in WSW 25.9 mph 29.0 mph 86 % 0.0 in
06:46 6.5 °F 4.3 °F 1015.1 in SW 11.1 mph 19.3 mph 86 % 0.0 in
06:52 6.5 °F 4.5 °F 1015.5 in WSW 7.9 mph 19.3 mph 87 % 0.0 in
06:58 6.5 °F 4.5 °F 1015.5 in WNW 20.9 mph 24.1 mph 87 % 0.0 in
07:04 6.4 °F 4.4 °F 1015.5 in WSW 13.0 mph 17.7 mph 87 % 0.0 in
07:10 6.3 °F 4.3 °F 1015.1 in SW 13.0 mph 19.3 mph 87 % 0.0 in
07:16 6.3 °F 4.3 °F 1015.1 in SW 11.1 mph 22.5 mph 87 % 0.0 in
07:22 6.2 °F 4.4 °F 1015.1 in SW 7.9 mph 17.7 mph 88 % 0.0 in
07:28 6.2 °F 4.4 °F 1015.1 in WSW 7.9 mph 19.3 mph 88 % 0.0 in
07:34 6.1 °F 4.3 °F 1015.1 in SSW 11.1 mph 24.1 mph 88 % 0.0 in
07:40 6.1 °F 4.3 °F 1015.1 in WSW 17.7 mph 22.5 mph 88 % 0.0 in
07:46 6.1 °F 4.3 °F 1014.8 in SW 19.5 mph 22.5 mph 88 % 0.0 in
07:52 6.1 °F 4.4 °F 1014.8 in SW 20.9 mph 20.9 mph 89 % 0.0 in
07:56 6.1 °F 4.4 °F 1014.8 in SW 16.3 mph 22.5 mph 89 % 0.0 in
08:02 6.0 °F 4.3 °F 1014.8 in SW 11.1 mph 22.5 mph 89 % 0.0 in
08:08 5.9 °F 4.2 °F 1014.8 in SW 6.4 mph 20.9 mph 89 % 0.0 in
08:14 5.9 °F 4.2 °F 1014.4 in SW 14.3 mph 17.7 mph 89 % 0.0 in
08:20 5.7 °F 4.0 °F 1014.4 in SSW 11.1 mph 20.9 mph 89 % 0.0 in
08:26 5.6 °F 4.1 °F 1014.4 in SW 11.1 mph 16.1 mph 90 % 0.0 in
08:34 5.4 °F 4.0 °F 1014.4 in South 11.1 mph 16.1 mph 91 % 0.0 in
08:40 5.6 °F 4.2 °F 1014.4 in SSW 14.3 mph 16.1 mph 91 % 0.0 in
08:46 5.6 °F 4.2 °F 1014.1 in SSW 13.0 mph 20.9 mph 91 % 0.0 in
08:52 5.7 °F 4.3 °F 1013.8 in SSW 20.9 mph 20.9 mph 91 % 0.0 in
08:58 5.8 °F 4.4 °F 1013.8 in SW 22.7 mph 22.7 mph 91 % 0.0 in
09:04 5.9 °F 4.5 °F 1013.4 in SSW 14.3 mph 25.7 mph 91 % 0.0 in
09:12 6.0 °F 4.6 °F 1013.4 in SSW 13.0 mph 25.7 mph 91 % 0.0 in
09:18 6.1 °F 4.6 °F 1013.1 in SW 19.5 mph 25.7 mph 90 % 0.0 in
09:24 6.2 °F 4.7 °F 1013.1 in SW 17.7 mph 29.0 mph 90 % 0.0 in
09:30 6.3 °F 4.8 °F 1012.8 in SSW 13.0 mph 22.5 mph 90 % 0.0 in
09:36 6.4 °F 4.9 °F 1012.8 in SW 16.3 mph 19.3 mph 90 % 0.0 in
09:42 6.5 °F 5.0 °F 1012.4 in SSW 14.3 mph 20.9 mph 90 % 0.0 in
09:48 6.7 °F 5.0 °F 1012.4 in SSW 13.0 mph 22.5 mph 89 % 0.0 in
09:54 6.8 °F 5.1 °F 1012.1 in SSW 19.5 mph 30.6 mph 89 % 0.0 in
10:00 6.9 °F 5.1 °F 1011.7 in SSW 16.3 mph 30.6 mph 88 % 0.0 in
10:06 7.1 °F 5.2 °F 1011.7 in SSW 19.5 mph 29.0 mph 88 % 0.0 in
10:12 7.2 °F 5.3 °F 1011.7 in South 20.9 mph 30.6 mph 88 % 0.0 in
10:18 7.2 °F 5.3 °F 1011.7 in SSW 28.8 mph 29.0 mph 88 % 0.0 in
10:22 7.2 °F 5.3 °F 1011.7 in SSW 22.7 mph 32.2 mph 88 % 0.3 in
10:28 7.1 °F 5.4 °F 1011.4 in South 13.0 mph 27.4 mph 89 % 0.5 in
10:31 7.0 °F 5.3 °F 1011.1 in SSW 20.9 mph 24.1 mph 89 % 0.5 in
10:36 6.9 °F 5.4 °F 1010.7 in SSW 25.9 mph 29.0 mph 90 % 0.5 in
10:42 6.8 °F 5.3 °F 1010.7 in South 20.9 mph 37.0 mph 90 % 0.5 in
10:48 6.8 °F 5.4 °F 1010.4 in South 24.1 mph 32.2 mph 91 % 0.5 in
10:55 6.8 °F 5.4 °F 1010.0 in South 17.7 mph 29.0 mph 91 % 0.8 in
11:00 6.8 °F 5.4 °F 1010.0 in SSW 17.7 mph 32.2 mph 91 % 0.8 in
11:07 6.7 °F 5.5 °F 1009.7 in SSW 25.9 mph 33.8 mph 92 % 0.8 in
11:13 6.7 °F 5.5 °F 1009.4 in SSW 22.7 mph 30.6 mph 92 % 1.0 in
11:19 6.7 °F 5.5 °F 1009.0 in SSW 25.9 mph 40.2 mph 92 % 1.0 in
11:25 6.8 °F 5.7 °F 1008.7 in SSW 28.8 mph 33.8 mph 93 % 0.8 in
11:29 6.8 °F 5.6 °F 1008.4 in SSW 19.5 mph 33.8 mph 92 % 0.8 in
11:35 6.8 °F 5.7 °F 1008.4 in SW 22.7 mph 25.7 mph 93 % 0.8 in
11:41 6.8 °F 5.7 °F 1008.0 in SSW 20.9 mph 22.5 mph 93 % 0.8 in
11:47 6.8 °F 5.7 °F 1008.0 in SSW 19.5 mph 35.4 mph 93 % 1.0 in
11:53 6.9 °F 5.8 °F 1008.0 in SSW 20.9 mph 37.0 mph 93 % 0.8 in
11:59 6.9 °F 5.8 °F 1007.7 in SSW 28.8 mph 43.4 mph 93 % 0.8 in
12:03 7.1 °F 6.0 °F 1007.3 in SSW 20.9 mph 41.8 mph 93 % 1.0 in
12:07 7.2 °F 6.0 °F 1007.3 in South 24.1 mph 45.1 mph 92 % 1.3 in
12:13 7.3 °F 5.9 °F 1007.3 in SW 33.8 mph 33.8 mph 91 % 1.3 in
12:15 7.3 °F 5.9 °F 1007.0 in SW 25.9 mph 43.4 mph 91 % 1.5 in
12:21 7.4 °F 6.0 °F 1006.7 in SW 28.8 mph 43.4 mph 91 % 1.5 in
12:27 7.4 °F 6.0 °F 1006.7 in SSW 19.5 mph 38.6 mph 91 % 1.5 in
12:33 7.3 °F 6.1 °F 1006.3 in SW 17.7 mph 38.6 mph 92 % 1.8 in
12:39 7.4 °F 6.2 °F 1006.3 in SSW 19.5 mph 40.2 mph 92 % 2.3 in
12:45 7.3 °F 6.1 °F 1006.0 in SSW 25.9 mph 37.0 mph 92 % 2.5 in
12:51 7.2 °F 6.1 °F 1005.6 in SW 24.1 mph 30.6 mph 93 % 3.3 in
12:57 7.2 °F 6.1 °F 1005.6 in SSW 20.9 mph 32.2 mph 93 % 3.8 in
13:03 7.2 °F 6.3 °F 1005.3 in WSW 14.3 mph 22.5 mph 94 % 4.3 in
13:09 7.1 °F 6.2 °F 1005.0 in SSW 1.4 mph 12.9 mph 94 % 4.8 in
13:13 7.1 °F 6.2 °F 1004.6 in SSW 4.7 mph 6.4 mph 94 % 5.6 in
13:19 7.0 °F 6.1 °F 1004.6 in SSE 3.2 mph 6.4 mph 94 % 6.3 in
13:25 6.9 °F 6.2 °F 1003.9 in East 1.4 mph 1.6 mph 95 % 7.1 in
13:31 6.9 °F 6.2 °F 1003.6 in Calm   4.8 mph 95 % 8.1 in
13:37 6.9 °F 6.2 °F 1003.3 in SW 3.2 mph 8.0 mph 95 % 9.4 in
13:43 7.2 °F 6.5 °F 1002.6 in WSW 40.4 mph 49.9 mph 95 % 9.9 in
13:49 7.2 °F 6.5 °F 1004.3 in NNW 24.1 mph 70.8 mph 95 % 10.2 in
13:55 6.7 °F 5.6 °F 1004.6 in West 13.0 mph 32.2 mph 93 % 10.7 in
14:01 6.6 °F 5.4 °F 1003.9 in WSW 14.3 mph 19.3 mph 92 % 10.4 in
14:07 6.5 °F 5.3 °F 1003.9 in SSW 7.9 mph 22.5 mph 92 % 9.9 in
14:13 6.2 °F 5.0 °F 1003.9 in SW 13.0 mph 29.0 mph 92 % 8.9 in
14:19 5.5 °F 4.3 °F 1003.9 in WSW 17.7 mph 37.0 mph 92 % 7.9 in
14:25 5.1 °F 4.1 °F 1003.6 in SW 22.7 mph 35.4 mph 93 % 6.9 in
14:31 5.1 °F 4.2 °F 1003.3 in SW 37.0 mph 40.2 mph 94 % 6.1 in
14:33 5.2 °F 4.5 °F 1002.9 in SW 28.8 mph 37.0 mph 95 % 5.6 in
14:39 5.6 °F 4.9 °F 1002.9 in WSW 33.8 mph 41.8 mph 95 % 4.1 in
14:45 5.8 °F 4.8 °F 1002.9 in WSW 25.9 mph 40.2 mph 93 % 3.3 in
14:51 6.1 °F 5.1 °F 1003.3 in SW 22.7 mph 49.9 mph 93 % 2.3 in
14:57 6.4 °F 5.0 °F 1003.3 in SW 45.1 mph 45.1 mph 91 % 1.8 in
15:03 6.5 °F 5.1 °F 1003.3 in SW 30.6 mph 49.9 mph 91 % 2.3 in
15:09 6.4 °F 5.0 °F 1002.9 in WSW 48.3 mph 49.9 mph 91 % 2.3 in
15:15 6.6 °F 4.9 °F 1002.9 in SW 45.1 mph 46.7 mph 89 % 2.3 in
15:21 6.6 °F 4.9 °F 1002.9 in SSW 33.8 mph 49.9 mph 89 % 2.3 in
15:27 6.5 °F 4.8 °F 1002.9 in SW 38.5 mph 41.8 mph 89 % 1.8 in
15:33 6.4 °F 5.0 °F 1002.9 in SW 17.7 mph 40.2 mph 91 % 1.5 in
15:39 6.3 °F 4.9 °F 1003.3 in SW 28.8 mph 29.0 mph 91 % 1.5 in
15:45 6.4 °F 5.0 °F 1003.3 in WSW 28.8 mph 30.6 mph 91 % 1.5 in
15:51 6.4 °F 5.0 °F 1003.6 in WSW 14.3 mph 32.2 mph 91 % 1.5 in
15:57 6.4 °F 5.0 °F 1003.3 in SW 22.7 mph 33.8 mph 91 % 1.3 in
16:03 6.4 °F 4.9 °F 1003.3 in WSW 24.1 mph 38.6 mph 90 % 0.5 in
16:09 6.4 °F 4.9 °F 1003.6 in SW 20.9 mph 30.6 mph 90 % 0.3 in
16:15 6.3 °F 4.8 °F 1003.9 in SW 24.1 mph 32.2 mph 90 % 0.0 in
16:23 6.4 °F 4.9 °F 1003.9 in WSW 16.3 mph 33.8 mph 90 % 0.0 in
16:27 6.4 °F 4.9 °F 1003.9 in SW 17.7 mph 41.8 mph 90 % 0.0 in
16:33 6.5 °F 5.1 °F 1003.9 in WSW 20.9 mph 38.6 mph 91 % 0.3 in
16:39 6.6 °F 5.4 °F 1003.9 in WSW 32.0 mph 38.6 mph 92 % 0.3 in
16:45 6.6 °F 5.5 °F 1004.3 in WSW 16.3 mph 30.6 mph 93 % 0.5 in
16:53 6.7 °F 5.6 °F 1004.6 in WSW 14.3 mph 27.4 mph 93 % 0.5 in
16:59 6.9 °F 5.8 °F 1004.6 in WSW 25.9 mph 30.6 mph 93 % 0.5 in
17:05 6.9 °F 5.8 °F 1005.0 in West 17.7 mph 29.0 mph 93 % 0.5 in
17:11 7.0 °F 5.9 °F 1005.0 in West 13.0 mph 43.4 mph 93 % 0.5 in
17:17 7.1 °F 5.9 °F 1005.6 in West 22.7 mph 49.9 mph 92 % 0.5 in
17:23 7.1 °F 6.0 °F 1005.6 in WSW 17.7 mph 32.2 mph 93 % 0.8 in
17:29 7.0 °F 5.9 °F 1005.6 in WSW 25.9 mph 46.7 mph 93 % 0.8 in
17:35 7.1 °F 5.7 °F 1006.0 in WSW 32.0 mph 38.6 mph 91 % 0.8 in
17:41 7.3 °F 5.8 °F 1006.3 in WSW 27.4 mph 32.2 mph 90 % 0.8 in
17:47 7.6 °F 5.6 °F 1006.3 in WSW 35.2 mph 35.4 mph 87 % 0.5 in
17:53 7.6 °F 5.6 °F 1006.7 in West 24.1 mph 29.0 mph 87 % 0.5 in
17:59 7.5 °F 5.6 °F 1007.0 in West 20.9 mph 30.6 mph 88 % 0.5 in
18:05 7.4 °F 5.5 °F 1007.0 in West 14.3 mph 32.2 mph 88 % 0.5 in
18:11 7.4 °F 5.4 °F 1007.3 in NW 16.3 mph 27.4 mph 87 % 0.5 in
18:17 7.4 °F 5.4 °F 1007.7 in West 20.9 mph 30.6 mph 87 % 0.5 in
18:23 7.5 °F 5.3 °F 1008.0 in West 20.9 mph 33.8 mph 86 % 0.3 in
18:29 7.4 °F 5.4 °F 1008.4 in West 13.0 mph 29.0 mph 87 % 0.3 in
18:35 7.2 °F 5.5 °F 1008.7 in WNW 9.7 mph 19.3 mph 89 % 0.0 in
18:41 7.2 °F 5.5 °F 1009.0 in West 11.1 mph 29.0 mph 89 % 0.0 in
18:47 7.3 °F 5.3 °F 1009.0 in WNW 14.3 mph 19.3 mph 87 % 0.0 in
18:53 7.3 °F 5.3 °F 1009.4 in WNW 13.0 mph 25.7 mph 87 % 0.0 in
18:59 7.2 °F 5.3 °F 1009.7 in West 16.3 mph 19.3 mph 88 % 0.0 in
19:05 7.2 °F 5.2 °F 1009.7 in WNW 25.9 mph 30.6 mph 87 % 0.0 in
19:06 7.2 °F 5.3 °F 1009.7 in West 6.4 mph 19.3 mph 88 % 0.0 in
19:13 7.3 °F 4.9 °F 1009.7 in West 4.7 mph 22.5 mph 85 % 0.0 in
19:19 7.3 °F 4.8 °F 1010.0 in West 19.5 mph 29.0 mph 84 % 0.0 in
19:25 7.3 °F 4.8 °F 1010.4 in West 13.0 mph 25.7 mph 84 % 0.0 in
19:31 7.3 °F 4.8 °F 1010.4 in West 24.1 mph 29.0 mph 84 % 0.0 in
19:37 7.4 °F 4.7 °F 1010.7 in West 16.3 mph 29.0 mph 83 % 0.0 in
19:43 7.6 °F 4.5 °F 1010.7 in WNW 38.6 mph 38.6 mph 81 % 0.3 in
19:49 7.7 °F 4.5 °F 1011.1 in WSW 17.7 mph 29.0 mph 80 % 0.3 in
19:53 7.7 °F 4.5 °F 1011.1 in NW 19.5 mph 32.2 mph 80 % 0.3 in
19:59 7.6 °F 4.4 °F 1011.1 in West 11.1 mph 22.5 mph 80 % 0.3 in
20:05 7.5 °F 4.3 °F 1011.4 in West 17.7 mph 33.8 mph 80 % 0.3 in
20:11 7.3 °F 4.3 °F 1011.7 in West 13.0 mph 22.5 mph 81 % 0.3 in
20:19 7.2 °F 4.5 °F 1011.7 in WSW 14.3 mph 32.2 mph 83 % 0.3 in
20:25 7.1 °F 4.6 °F 1012.1 in West 14.3 mph 20.9 mph 84 % 0.3 in
20:31 7.1 °F 4.6 °F 1012.1 in West 13.0 mph 22.5 mph 84 % 0.3 in
20:37 7.1 °F 4.6 °F 1012.4 in WSW 22.7 mph 29.0 mph 84 % 0.3 in
20:43 7.1 °F 4.6 °F 1012.8 in WSW 16.3 mph 25.7 mph 84 % 0.0 in
20:45 7.1 °F 4.6 °F 1012.8 in WSW 14.3 mph 22.5 mph 84 % 0.0 in
20:51 7.1 °F 4.6 °F 1012.8 in SW 17.7 mph 20.9 mph 84 % 0.0 in
20:57 7.0 °F 4.5 °F 1012.8 in WSW 17.7 mph 22.5 mph 84 % 0.0 in
20:59 7.0 °F 4.5 °F 1012.8 in WNW 19.5 mph 24.1 mph 84 % 0.0 in
21:05 6.9 °F 4.6 °F 1013.1 in West 17.7 mph 24.1 mph 85 % 0.0 in
21:12 6.9 °F 4.6 °F 1013.4 in WSW 19.5 mph 24.1 mph 85 % 0.0 in
21:18 6.8 °F 4.5 °F 1013.4 in WSW 20.9 mph 25.7 mph 85 % 0.0 in
21:22 6.8 °F 4.5 °F 1013.4 in West 20.9 mph 24.1 mph 85 % 0.0 in
21:28 6.8 °F 4.6 °F 1013.4 in West 16.3 mph 25.7 mph 86 % 0.0 in
21:34 6.7 °F 4.5 °F 1013.8 in West 19.5 mph 27.4 mph 86 % 0.0 in
21:42 6.8 °F 4.6 °F 1013.8 in West 19.5 mph 24.1 mph 86 % 0.0 in
21:44 6.8 °F 4.6 °F 1014.1 in West 19.5 mph 25.7 mph 86 % 0.0 in
21:50 6.8 °F 4.6 °F 1014.1 in WSW 14.3 mph 22.5 mph 86 % 0.0 in
21:56 6.9 °F 4.7 °F 1014.1 in West 16.3 mph 32.2 mph 86 % 0.0 in
22:02 6.8 °F 4.6 °F 1014.4 in West 16.3 mph 27.4 mph 86 % 0.0 in
22:08 6.8 °F 4.6 °F 1014.4 in West 19.5 mph 22.5 mph 86 % 0.0 in
22:14 6.8 °F 4.6 °F 1014.8 in West 14.3 mph 20.9 mph 86 % 0.0 in
22:20 6.8 °F 4.6 °F 1014.8 in West 13.0 mph 22.5 mph 86 % 0.0 in
22:24 6.8 °F 4.6 °F 1014.8 in West 14.3 mph 29.0 mph 86 % 0.0 in
22:30 6.7 °F 4.5 °F 1015.1 in West 17.7 mph 22.5 mph 86 % 0.0 in
22:36 6.7 °F 4.5 °F 1015.1 in West 6.4 mph 22.5 mph 86 % 0.0 in
22:42 6.7 °F 4.5 °F 1015.5 in SW 9.7 mph 22.5 mph 86 % 0.0 in
22:48 6.6 °F 4.4 °F 1015.5 in West 14.3 mph 24.1 mph 86 % 0.0 in
22:54 6.7 °F 4.5 °F 1015.5 in WSW 6.4 mph 19.3 mph 86 % 0.0 in
22:56 6.6 °F 4.4 °F 1015.5 in WNW 7.9 mph 22.5 mph 86 % 0.0 in
23:02 6.6 °F 4.4 °F 1015.8 in West 14.3 mph 22.5 mph 86 % 0.0 in
23:08 6.7 °F 4.4 °F 1015.8 in West 13.0 mph 24.1 mph 85 % 0.0 in
23:14 6.7 °F 4.4 °F 1015.8 in West 17.7 mph 22.5 mph 85 % 0.0 in
23:18 6.8 °F 4.3 °F 1015.8 in WSW 17.7 mph 24.1 mph 84 % 0.0 in
23:24 6.8 °F 4.3 °F 1015.8 in WSW 11.1 mph 16.1 mph 84 % 0.0 in
23:28 6.7 °F 4.2 °F 1016.1 in West 14.3 mph 17.7 mph 84 % 0.0 in
23:34 6.6 °F 4.3 °F 1016.1 in WSW 13.0 mph 16.1 mph 85 % 0.0 in
23:40 6.5 °F 4.3 °F 1016.1 in WSW 13.0 mph 22.5 mph 86 % 0.0 in
23:46 6.6 °F 4.3 °F 1016.5 in WSW 19.5 mph 27.4 mph 85 % 0.0 in
23:52 6.7 °F 4.4 °F 1016.5 in WNW 13.0 mph 19.3 mph 85 % 0.0 in
23:54 6.6 °F 4.3 °F 1016.5 in WNW 7.9 mph 16.1 mph 85 % 0.0 in
Meteo18
Compliments of Weather Underground - 4 mb

Script developed by  Jim McMurry - jmcmurry@mwt.net Adapted for the template by  Wim van der Kuil - Leuven-Template.eu

You find our weather info also at:

European Weather Network

Weather Underground

Equipment we use:

Weather-station
Davis Vue

Weather-program
Meteobridge

Weather-server
Raspberry PI 2 B+

Provider
1 and 1

Davis Vue

Meteobridge

Raspberry PI 2 B+

1 and 1